Regional Weather Roundup
Issued by NWS Kansas City/Pleasant Hill, MO

Home | Current Version | Previous Version | Graphics & Text | Print | Product List | Glossary Off
Versions: 1 2 3 4 5 6 7 8 9 10 11 12 13 14 15 16 17 18 19 20 21 22 23 24 25 26 27 28 29 30 31 32 33 34 35 36 37 38 39 40 41 42 43 44 45 46 47 48 49 50

569
ASUS43 KEAX 221810
RWREAX

WEATHER ROUNDUP FOR EASTERN KANSAS AND NORTHWEST MISSOURI
NATIONAL WEATHER SERVICE KANSAS CITY/PLEASANT HILL MO
1200 PM CST WED NOV 22 2017

KSZ040-057-103>105-MOZ028-029-037-043-221900-
...KANSAS CITY METROPOLITAN AREA...

CITY           SKY/WX    TMP DP  RH WIND       PRES   REMARKS
K.C. INTL      MOSUNNY   36  16  44 S5        30.37F WCI  32
6HR MIN TEMP:  18; 6HR MAX TEMP:  36;

K.C. DOWNTOWN  SUNNY     36  14  40 SW6       30.40F WCI  31
6HR MIN TEMP:  22; 6HR MAX TEMP:  36;

LEES SUMMIT    SUNNY     35  15  44 SW3       30.39F
6HR MIN TEMP:  20; 6HR MAX TEMP:  35;

OLATHE - IXD   SUNNY     35  16  45 S5        30.39F WCI  31
6HR MIN TEMP:  17; 6HR MAX TEMP:  35; 6HR PCP: TRACE;

OLATHE - OJC   SUNNY     34  16  47 VRB3      30.39F
6HR MIN TEMP:  18; 6HR MAX TEMP:  34; 6HR PCP: TRACE;

LAWRENCE       SUNNY     36  16  44 CALM      30.39F

$$

MOZ001>008-011>017-020>025-030>033-038>040-044>046-053-054-221900-
...NORTHERN AND CENTRAL MISSOURI...

CITY           SKY/WX    TMP DP  RH WIND       PRES   REMARKS
ST. JOSEPH     SUNNY     35  16  45 S8        30.37F WCI  29
6HR MIN TEMP:  14; 6HR MAX TEMP:  35;

MOSBY          CLEAR     34  14  44 S6        30.39F WCI  29
WARRENSBURG    SUNNY     34  16  47 CALM      30.40F
WHITEMAN AFB   SUNNY     35  15  43 CALM      30.35F
6HR MIN TEMP:  17; 6HR MAX TEMP:  35;

CLINTON        SUNNY     36  18  48 CALM      30.40F
SEDALIA        SUNNY     36  17  46 CALM      30.40F
6HR MIN TEMP:  20; 6HR MAX TEMP:  37;

WARSAW         NOT AVBL
CHILLICOTHE      N/A     34  17  50 VRB6      30.40F WCI  29
6HR MIN TEMP:  16; 6HR MAX TEMP:  34;

KIRKSVILLE     SUNNY     35  16  45 SW6       30.37F WCI  30
6HR MIN TEMP:  15; 6HR MAX TEMP:  36;


$$

MOZ041-047>049-056>058-063>065-088>090-097-221900-
...EASTERN AND SOUTHERN MISSOURI...

CITY           SKY/WX    TMP DP  RH WIND       PRES   REMARKS
ST. LOUIS INTL SUNNY     36  18  48 NW6       30.38F WCI  31
6HR MIN TEMP:  24; 6HR MAX TEMP:  36;

SPIRIT OF STL  SUNNY     36  19  50 VRB5      30.38F WCI  32
COLUMBIA       SUNNY     36  16  44 N5        30.37F WCI  32
JEFFERSON CITY SUNNY     35  17  47 VRB3      30.40F
ROLLA          SUNNY     37  17  44 CALM      30.36F
OSAGE BEACH    SUNNY     37  16  42 W3        30.39F
SPRINGFIELD    SUNNY     39  19  44 N5        30.35F
BRANSON        SUNNY     37  16  41 NW3       30.37F
JOPLIN         SUNNY     40  21  46 N6        30.39F
WEST PLAINS    SUNNY     42  16  34 NW6       30.34F

$$

IAZ060-094-KSZ022-034>040-054-083-096-NEZ052-066-093-221900-
...KANSAS...SOUTHEAST NEBRASKA AND IOWA...

CITY           SKY/WX    TMP DP  RH WIND       PRES   REMARKS
TOPEKA         SUNNY     37  14  38 SW6       30.37F WCI  32
6HR MIN TEMP:  18; 6HR MAX TEMP:  37;

MANHATTAN      CLOUDY    37  14  38 SW9       30.37F WCI  30
EMPORIA        SUNNY     37  14  38 S3        30.38F
CHANUTE        SUNNY     37  16  42 VRB3      30.40F
WICHITA        MOSUNNY   38  16  40 VRB3      30.39F
OMAHA          MOSUNNY   33  14  45 S15       30.31F WCI  23
LINCOLN        CLOUDY    35  14  42 S15       30.30F WCI  25
FALLS CITY     SUNNY     35  13  40 S9G21     30.34F WCI  28
LAMONI         SUNNY     33  15  47 SW12      30.33F WCI  24
DES MOINES     MOSUNNY   32  13  45 S8        30.33F WCI  25

$$





USA.gov is the U.S. government's official web portal to all federal, state and local government web resources and services.